Dewpoint
57 57 57 57 57 58 57 58 57 58 58 58 58 57 55 54 53 53 52 52 52 53 53 54 54 54 53 55 57 57 55 54 51 51 51 51 53 53 53 54 54 54 52
57 56 57 56 57 57 57 57 57 57 57 58 58 57 56 55 54 51 51 51 51 50 51 53 53 53 54 54 54 54 53 54 53 51 52 52 53 54 55 54 52 51 54
57 57 57 55 56 56 57 58 58 58 58 58 58 57 57 57 56 55 54 53 53 53 53 51 51 53 53 54 54 53 53 53 54 54 54 53 53 53 53 55 56 56 53
56 56 55 55 55 56 57 57 57 57 57 57 57 58 58 57 57 57 57 57 57 56 56 55 54 53 54 56 56 56 56 57 56 55 54 53 54 54 55 54 55 55 55
53 53 55 56 56 56 57 56 57 58 57 56 56 56 57 57 55 57 56 56 56 56 56 56 57 55 51 52 55 56 56 57 56 56 54 54 54 53 53 54 54 55 56
41 42 44 46 47 48 49 50 53 54 56 57 57 57 56 44 36 38 46 56 56 55 55 56 56 51 51 45 44 45 51 55 54 54 53 53 54 54 55 55 55 53 51
38 37 38 39 41 43 44 44 45 47 48 46 45 41 38 36 35 36 36 48 55 56 56 55 55 54 51 55 49 44 44 43 42 52 53 54 53 53 53 53 53 53 53
36 35 36 37 37 39 39 41 43 43 41 39 38 39 36 33 34 34 34 44 48 51 49 42 43 46 42 40 49 53 52 51 50 50 51 46 37 35 38 42 43 44 46
31 32 34 35 36 37 37 39 40 39 36 34 34 34 33 32 33 33 37 43 41 37 33 33 34 34 34 35 41 46 48 43 34 33 33 32 30 30 31 38 38 36 41
30 30 32 32 33 33 35 37 37 34 33 32 31 32 32 31 31 32 37 40 36 33 30 30 30 31 31 32 37 39 39 33 33 31 28 27 26 26 26 27 28 33 35
28 29 29 30 31 32 33 34 34 34 33 33 32 32 31 30 30 30 32 34 33 30 29 28 29 28 29 29 30 30 30 29 27 26 26 25 25 24 24 25 26 26 26
28 27 27 28 29 30 30 31 32 32 32 32 31 31 31 31 29 29 29 29 30 29 29 29 29 27 27 27 27 27 26 26 26 25 25 24 25 25 26 26 27 28 28
26 25 25 25 26 27 28 29 29 29 30 29 28 29 29 30 30 28 26 26 27 29 28 27 26 26 27 28 26 28 29 30 28 27 26 26 27 29 31 31 30 29 26
25 24 24 23 23 24 25 25 26 28 27 27 28 28 28 28 29 30 30 30 28 29 28 30 28 27 27 27 29 30 30 30 29 27 27 28 28 27 26 26 26 26 25
24 23 24 23 22 22 23 24 24 27 27 27 27 27 27 26 26 25 27 28 29 28 31 32 30 29 28 26 26 26 26 26 25 26 25 25 25 25 23 23 21 20 18
24 24 25 25 24 23 21 21 23 23 24 24 25 26 26 24 23 23 23 23 24 26 28 27 25 25 24 24 24 23 23 21 22 22 22 21 19 19 18 17 17 16 14
26 25 24 24 24 23 24 24 21 21 20 21 22 22 22 22 21 21 22 22 23 24 25 24 23 23 22 21 21 20 19 18 18 18 18 18 17 15 16 15 16 14 11
25 23 26 25 25 25 25 24 24 24 22 21 18 19 19 19 20 20 21 22 24 22 21 20 20 20 18 16 15 15 16 17 17 15 17 17 18 16 15 12 13 14 11
25 24 25 24 24 24 24 24 24 23 22 21 21 19 17 16 17 17 18 21 19 17 16 15 17 16 16 15 17 17 16 16 16 17 16 15 17 15 13 13 12 9 10
23 20 22 24 23 23 23 22 21 20 19 18 16 15 18 18 18 17 17 18 16 15 15 13 13 14 14 14 16 16 16 15 14 14 15 15 15 14 12 11 12 11 8
23 21 19 21 21 20 20 19 18 17 16 14 12 11 9 13 13 13 12 13 13 13 14 12 13 13 13 13 11 13 11 13 11 11 12 12 13 13 11 11 11 9 7
20 19 18 18 17 18 16 15 15 13 11 11 11 9 8 13 12 11 11 12 12 11 11 11 10 9 8 9 9 11 9 9 9 10 10 9 10 11 11 10 10 10 8
17 17 15 14 14 13 14 12 13 13 12 12 10 10 11 11 11 10 10 11 9 10 9 9 9 7 8 8 9 8 7 6 7 6 8 9 9 10 11 10 8 8 8
15 15 12 13 14 13 14 14 11 7 9 11 12 10 9 9 10 8 8 8 8 9 8 7 5 3 3 6 8 7 4 4 5 6 4 6 7 7 9 7 7 5 7
15 14 14 13 13 13 12 11 11 11 11 11 10 10 8 9 7 8 8 7 5 7 2 5 5 3 1 -1 1 1 -1 -2 -0 -1 5 5 5 4 5 6 5 6 5
10 10 11 11 11 11 11 11 10 10 10 10 10 9 8 7 6 8 6 3 4 4 -0 5 3 -1 0 -3 -2 0 -3 -3 -2 -3 0 5 5 5 6 5 3 6 5
Lifted_Index
-2 -1 0 1 2 2 2 1 1 1 1 2 2 1 1 1 1 2 2 2 3 4 5 5 5 5 4 4 4 4 4 5 5 4 4 4 3 3 3 3 3 3 4
-2 -1 0 1 2 2 2 1 1 1 1 1 2 1 1 1 1 2 2 2 3 4 5 5 5 5 4 4 4 4 4 5 5 4 4 3 3 3 3 3 2 3 3
-2 -1 0 1 2 2 2 1 1 1 1 1 1 1 1 1 1 1 2 2 2 3 4 4 4 4 4 4 4 4 4 4 3 3 3 2 2 2 2 2 1 1 1
-1 -1 0 1 2 2 1 1 1 1 1 1 1 1 1 1 2 2 2 2 2 2 3 3 3 3 3 3 2 2 2 2 2 2 1 1 1 1 1 1 1 1 1
-0 -0 0 1 1 1 1 1 2 2 1 2 2 2 2 2 2 2 2 2 2 2 2 2 2 2 2 2 1 1 1 1 1 1 1 1 1 0 0 0 0 1 1
-0 -0 -0 0 1 1 1 2 2 2 2 2 2 2 2 2 2 2 2 2 2 2 2 2 2 2 2 2 1 1 1 1 1 1 1 1 1 1 1 1 1 1 2
1 1 0 0 0 1 1 2 2 1 1 1 1 2 2 2 2 2 2 2 2 2 2 2 2 2 1 1 1 1 1 1 1 1 2 2 2 2 2 2 2 2 3
3 3 2 2 2 2 2 2 2 1 1 1 1 2 2 2 1 1 1 1 2 2 2 2 1 1 1 1 1 1 1 1 1 2 3 3 3 3 3 3 3 3 3
6 6 6 5 4 4 3 3 2 2 2 2 2 2 2 2 2 2 2 2 2 2 2 2 2 1 1 1 1 1 1 1 2 3 3 4 4 4 4 4 3 3 3
9 9 9 8 7 7 6 6 5 4 4 4 4 4 4 5 5 4 4 4 4 4 4 4 3 3 2 2 2 1 1 2 3 4 4 5 6 6 7 7 6 5 4
11 11 11 11 10 10 10 9 8 8 7 7 7 7 8 8 9 8 7 7 6 6 6 6 6 6 5 5 5 4 4 4 5 5 6 7 8 10 11 12 11 10 9
12 12 12 12 12 12 12 11 10 10 9 9 9 9 10 11 11 11 10 10 9 8 8 9 9 10 9 9 9 8 8 8 8 8 8 9 11 13 15 16 16 16 16
12 11 12 12 12 12 12 11 11 10 10 9 9 9 10 11 13 13 13 12 12 11 11 12 13 13 13 12 12 13 13 12 11 11 11 12 14 16 17 17 18 18 18
11 11 11 11 11 12 12 12 11 11 10 10 9 9 10 11 13 14 14 14 14 14 14 14 14 14 14 14 15 15 15 15 14 14 14 15 16 17 17 18 18 18 18
11 11 11 11 11 12 12 12 13 13 12 12 11 12 12 13 14 15 15 15 15 15 15 15 14 14 14 15 15 16 16 16 16 16 16 17 17 17 17 18 18 18 17
11 12 12 12 12 12 12 13 14 15 15 15 15 15 15 15 16 16 16 16 16 16 15 15 14 14 15 15 16 16 17 17 17 17 17 17 17 18 18 19 20 19 19
13 13 13 13 13 13 13 13 14 15 16 16 17 17 17 17 17 17 18 18 17 17 16 15 15 15 16 16 17 17 17 18 19 19 19 19 19 19 20 20 20 20 20
14 14 14 15 15 15 15 15 15 15 15 16 17 18 18 18 18 19 19 18 18 17 17 17 17 17 18 18 19 19 20 20 21 21 20 20 20 20 20 20 21 20 20
15 15 15 15 16 16 16 16 16 16 16 16 17 18 19 19 19 19 19 19 18 18 18 19 19 20 20 21 21 21 21 21 21 21 21 21 21 21 20 21 21 21 21
17 17 17 17 17 17 17 17 17 17 17 17 18 18 19 20 20 20 20 20 20 20 21 21 21 22 22 22 22 21 21 21 21 21 21 21 21 21 21 21 21 21 21
19 18 18 18 18 18 18 18 18 18 18 19 19 20 20 21 21 21 21 21 22 22 22 22 22 22 22 22 22 22 22 22 22 22 22 22 22 22 22 22 22 21 21
20 20 20 20 19 19 19 19 19 20 20 20 20 21 21 21 21 22 22 22 23 23 23 23 23 23 23 24 23 23 23 23 23 23 23 22 22 22 22 22 22 22 21
21 21 21 21 20 20 20 20 20 20 20 21 21 21 21 22 22 22 22 23 23 24 24 24 24 24 24 24 24 24 23 23 23 23 23 22 22 22 22 22 22 21 21
21 21 21 21 21 21 21 21 21 21 21 21 21 21 22 22 22 22 23 23 24 24 24 24 24 24 24 24 24 24 24 23 23 23 23 22 22 22 22 21 21 20 20
21 21 21 21 21 21 21 21 21 21 21 21 22 22 22 22 22 23 23 23 24 24 24 24 24 24 24 24 24 24 24 23 23 23 23 22 21 21 21 20 20 19 19
21 21 21 21 21 21 21 21 21 21 21 22 22 22 22 22 23 23 23 23 23 23 23 23 23 23 23 23 23 23 23 23 23 23 22 22 21 20 20 20 19 19 19